Regional Weather Roundup
Issued by NWS Mt. Holly, NJ

Home | Current Version | Previous Version | Text Only | Print | Product List | Glossary On
Versions: 1 2 3 4 5 6 7 8 9 10 11 12 13 14 15 16 17 18 19 20 21 22 23 24 25 26 27 28
000
ASUS41 KPHI 251910
RWRPHI

REGIONAL WEATHER ROUNDUP
NATIONAL WEATHER SERVICE MOUNT HOLLY NJ
300 PM EDT SAT OCT 25 2014

NOTE:  "FAIR" INDICATES FEW OR NO CLOUDS BELOW 12,000 FEET WITH NO
SIGNIFICANT WEATHER AND/OR OBSTRUCTIONS TO VISIBILITY.

 * = STATION DOES NOT REPORT PRECIPITATION (E.G. RAIN, SNOW, ETC.)
        OR FOG.

NJZ015>026-252000-
SOUTHERN NEW JERSEY

CITY           SKY/WX    TMP DP  RH WIND       PRES   REMARKS
POMONA         SUNNY     69  44  40 W16       29.76F
RIO GRANDE*    SUNNY     66  43  42 SW9       29.80F
MILLVILLE      SUNNY     68  45  43 VRB7      29.78F
WRIGHTSTOWN    SUNNY     68  45  42 W16G24    29.72F HAZE
MOUNT HOLLY    MOSUNNY   68  43  40 W13       29.75F
TRENTON        MOSUNNY   67  42  40 W14G20    29.74F

$$
NJZ001>014-252000-
NORTHERN NEW JERSEY

CITY           SKY/WX    TMP DP  RH WIND       PRES   REMARKS
SUSSEX         SUNNY     67  42  40 W8        29.69F
ANDOVER*         N/A     66  41  40 SW8       29.71F
MORRISTOWN     SUNNY     68  43  40 W15G23    29.71F
NEWARK         MOSUNNY   69  42  37 W17       29.70F
TETERBORO      SUNNY     67  41  38 SW10      29.69F
CALDWELL       SUNNY     67  40  37 W8G18     29.70F
SOMERVILLE     SUNNY     68  42  38 VRB6G17   29.70F
ALLAIRE*       SUNNY     66  43  42 W10G18    29.73F
TOMS RIVER*    SUNNY     68  43  40 W12G20    29.75S

$$
PAZ043-044-047-054-055-060>062-066>071-252000-
EASTERN PENNSYLVANIA

CITY           SKY/WX    TMP DP  RH WIND       PRES   REMARKS
PHILADELPHIA   MOSUNNY   70  44  39 W16       29.76F
NORTH PHILA    SUNNY     69  41  36 W17G23    29.77F
BLUE BELL      SUNNY     68  45  42 SW12G18   29.75F
DOYLESTOWN     SUNNY     66  42  41 W12G20    29.74F
QUAKERTOWN*    SUNNY     66  45  45 W9        29.75F
POTTSTOWN      SUNNY     67  43  41 W10G20    29.76F
LANCASTER      SUNNY     67  42  40 W14       29.76F
COATESVILLE    SUNNY     66  45  45 W12G18    29.78F
READING        SUNNY     68  43  40 W15       29.74F
ALLENTOWN      SUNNY     68  41  37 W15G21    29.73F
MOUNT POCONO   MOSUNNY   59  41  51 SW14G22   29.73F
HAZLETON       MOSUNNY   63  41  45 W8        29.76F
WILKES BARRE   SUNNY     64  42  44 SW12G23   29.70F

$$
DEZALL-MDZ008-012-015-019-020-252000-
DELAWARE AND EASTERN MARYLAND

CITY           SKY/WX    TMP DP  RH WIND       PRES   REMARKS
WILMINGTON     SUNNY     69  45  41 SW8       29.78F
DOVER          SUNNY     69  45  41 W18G24    29.77F
GEORGETOWN     SUNNY     69  43  38 W9        29.81F
EASTON         SUNNY     70  46  43 W9        29.85
PATUXENT       MOSUNNY   70  41  34 W14       29.83F
OCEAN CITY     SUNNY     68  46  45 SW8       29.81F
WALLOPS ISLAND SUNNY     69  48  47 W8        29.84F
CAMBRIDGE      SUNNY     72  43  35 W7        29.82F
SALISBURY      SUNNY     71  45  39 SW12      29.82F

$$
PAZ001-021-NYZ056-072-MDZ011-DCZ001-252000-
OTHER NEARBY LOCATIONS

CITY           SKY/WX    TMP DP  RH WIND       PRES   REMARKS
HARRISBURG     MOSUNNY   68  44  42 W8        29.75F
STATE COLLEGE  SUNNY     66  48  52 W20G28    29.74F
WILLIAMSPORT   SUNNY     70  44  39 W13G21    29.68F
BINGHAMTON     MOSUNNY   60  44  55 SW12      29.66F
NEW YORK CITY  SUNNY     66  41  40 MISG      29.72F
BALTIMORE      MOSUNNY   70  42  36 W13G23    29.79F
WASHINGTON DC  MOSUNNY   74  42  31 W10G22    29.83F

$$



USA.gov is the U.S. government's official web portal to all federal, state and local government web resources and services.